Location: Unspecified
(52.1971°N, 0.0000°E)
Time: 01:54:12
(UTC+00:00)

YUBILEINY - Pass Details

Date: 22 December 2019
Orbit: 1478 x 1509 km, 82.5° (Epoch: 22 January)

Event Time Altitude Azimuth Distance (km) Brightness Sun altitude
Exits shadow 22:44:38 15° 351° (N) 3,267 ? -57.9°
Drops below altitude 10° 22:46:15 10° 359° (N) 3,630 ? -58.1°
Sets 22:49:58 0° 14° (NNE) 4,613 ? -58.4°
